Fallon NAS, NV

12:27 AM PST on December 17, 2017 (GMT -0800)
Fallon Naval Air Station

Weather History for KNFL - November, 2014

Change the Weather History Date:

Saturday, November 8, 2014

  Actual Average Record
Temperature  
Mean Temperature 50 °F -  
Max Temperature 66 °F 58 °F 76 °F (1958)
Min Temperature 35 °F 27 °F 10 °F (1948)
Degree Days  
Heating Degree Days 14    
Moisture  
Dew Point 34 °F    
Average Humidity 60    
Maximum Humidity 86    
Minimum Humidity 32    
Precipitation  
Precipitation 0.00 in - - ()
Sea Level Pressure  
Sea Level Pressure 30.17 in    
Wind  
Wind Speed 4 mph (South)    
Max Wind Speed 8 mph    
Max Gust Speed -    
Visibility 10 miles    
Events      
Averages and records for this station are not official NWS values.
T = Trace of Precipitation, MM = Missing Value Source: NWS Daily Summary

Daily Weather History Graph

Daily Weather History Graph

Search for Another Location

Airport or City:

Trip Planner

Search our weather history database for the weather conditions in past years. The results will help you decide how hot, cold, wet, or windy it might be!

Date:

Astronomy

Nov. 08, 2014 Rise Set
Actual Time 6:30 AM PST 4:45 PM PST
Civil Twilight 6:02 AM PST 5:14 PM PST
Nautical Twilight 5:30 AM PST 5:46 PM PST
Astronomical Twilight 4:58 AM PST 6:17 PM PST
Moon 6:31 PM PST (11/8) 8:11 AM PST (11/8)
Length of Visible Light 11h 11m
Length of Day
10h 14m
Waning Gibbous, 96% of the Moon is Illuminated
Nov 8
Waning Gibbous
Nov 14
Last Quarter
Nov 22
New
Nov 29
First Quarter
Dec 6
Full

Hourly Weather History & Observations

Time (PST) Temp. Windchill Dew Point Humidity Pressure Visibility Wind Dir Wind Speed Gust Speed Precip Events Conditions
12:56 AM 39.0 °F 34.8 °F 30.9 °F 73% 30.19 in 10.0 mi South 5.8 mph - N/A   Clear
1:56 AM 37.0 °F 31.6 °F 30.0 °F 76% 30.20 in 10.0 mi South 6.9 mph - N/A   Clear
2:56 AM 37.0 °F 33.3 °F 30.9 °F 79% 30.19 in 10.0 mi SSW 4.6 mph - N/A   Clear
3:56 AM 37.0 °F 33.3 °F 30.0 °F 76% 30.19 in 10.0 mi SSE 4.6 mph - N/A   Clear
4:56 AM 36.0 °F 32.1 °F 30.9 °F 82% 30.20 in 10.0 mi South 4.6 mph - N/A   Clear
5:56 AM 36.0 °F 33.3 °F 32.0 °F 86% 30.21 in 10.0 mi WSW 3.5 mph - N/A   Clear
6:56 AM 35.1 °F - 30.9 °F 85% 30.22 in 10.0 mi Calm Calm - N/A   Clear
7:56 AM 44.1 °F 41.5 °F 34.0 °F 68% 30.22 in 10.0 mi SSW 4.6 mph - N/A   Clear
8:56 AM 50.0 °F - 35.1 °F 57% 30.23 in 10.0 mi Calm Calm - N/A   Scattered Clouds
9:56 AM 54.0 °F - 36.0 °F 51% 30.23 in 10.0 mi Calm Calm - N/A   Mostly Cloudy
10:56 AM 57.0 °F - 36.0 °F 45% 30.21 in 10.0 mi Calm Calm - N/A   Mostly Cloudy
11:56 AM 62.1 °F - 36.0 °F 38% 30.18 in 10.0 mi NNE 3.5 mph - N/A   Mostly Cloudy
12:56 PM 64.0 °F - 35.1 °F 34% 30.16 in 10.0 mi North 4.6 mph - N/A   Mostly Cloudy
1:56 PM 66.0 °F - 35.1 °F 32% 30.14 in 10.0 mi North 8.1 mph - N/A   Mostly Cloudy
2:56 PM 66.0 °F - 35.1 °F 32% 30.13 in 10.0 mi NNE 4.6 mph - N/A   Mostly Cloudy
3:56 PM 64.9 °F - 36.0 °F 34% 30.12 in 10.0 mi North 5.8 mph - N/A   Mostly Cloudy
4:56 PM 57.9 °F - 35.1 °F 42% 30.12 in 10.0 mi North 3.5 mph - N/A   Mostly Cloudy
5:56 PM 51.1 °F - 35.1 °F 54% 30.12 in 10.0 mi Calm Calm - N/A   Mostly Cloudy
6:56 PM 51.1 °F - 35.1 °F 54% 30.13 in 10.0 mi Calm Calm - N/A   Clear
7:56 PM 44.1 °F - 33.1 °F 65% 30.13 in 10.0 mi Calm Calm - N/A   Clear
8:56 PM 42.1 °F 38.4 °F 33.1 °F 70% 30.13 in 10.0 mi SSE 5.8 mph - N/A   Clear
9:56 PM 44.1 °F 39.5 °F 34.0 °F 68% 30.12 in 10.0 mi SE 8.1 mph - N/A   Clear
10:56 PM 42.1 °F 37.7 °F 33.1 °F 70% 30.11 in 10.0 mi South 6.9 mph - N/A   Clear
11:56 PM 41.0 °F 37.1 °F 34.0 °F 76% 30.10 in 10.0 mi SSW 5.8 mph - N/A   Clear